Location: Huntsville
(41.2590°N, 111.7678°W)
Time: 04:06:00
(UTC+00:00)

Vanguard 2 - Visible Passes

Search period start: 06 October 2022 00:00
Search period end: 16 October 2022 00:00
Orbit: 552 x 2934 km, 32.9° (Epoch: 05 October)

Date Brightness Start Highest point End Pass type
(mag) Time Alt. Az. Time Alt. Az. Time Alt. Az.
06 Oct 11.6 01:56:59 10° W 02:10:33 31° SW 02:24:15 10° SSE visible
07 Oct 11.7 02:15:17 10° W 02:27:22 24° SW 02:39:35 10° S visible
08 Oct 11.9 02:34:19 10° WSW 02:44:08 18° SW 02:54:04 10° S visible
09 Oct 12.1 02:55:17 10° WSW 03:00:53 12° SW 03:06:33 10° SSW visible
10 Oct 11.9 00:55:50 10° W 01:07:45 28° SW 01:21:16 10° SSE visible
11 Oct 12.0 01:14:17 10° W 01:24:42 21° SW 01:36:15 10° S visible
12 Oct 12.1 01:33:45 10° WSW 01:41:38 15° SW 01:50:07 10° SSW visible
